Weather History for Phnom Penh, Cambodia

Change the Weather History Date:

Thursday, February 14, 2013

  Actual Average Record
Temperature  
Mean Temperature 84 °F -  
Max Temperature 95 °F 89 °F 95 °F (2013)
Min Temperature 74 °F 74 °F 68 °F (2004)
Cooling Degree Days 20    
Growing Degree Days 34 (Base 50)    
Moisture  
Dew Point 66 °F    
Average Humidity 49    
Maximum Humidity 67    
Minimum Humidity 34    
Precipitation  
Precipitation 0.00 in - - ()
Sea Level Pressure  
Sea Level Pressure 29.80 in    
Wind  
Wind Speed 5 mph ()    
Max Wind Speed 12 mph    
Max Gust Speed -    
Visibility 5.7 miles    
Events      
Averages and records for this station are not official NWS values.
T = Trace of Precipitation, MM = Missing Value Source: Averaged Metar Reports

Daily Weather History Graph

Daily Weather History Graph

Search for Another Location

Airport:

Trip Planner

Search our weather history database for the weather conditions in past years. The results will help you decide how hot, cold, wet, or windy it might be!

Date:

Astronomy

Feb. 14, 2013 Rise Set
Actual Time 6:22 AM ICT 6:07 PM ICT
Civil Twilight 6:00 AM ICT 6:29 PM ICT
Nautical Twilight 5:35 AM ICT 6:54 PM ICT
Astronomical Twilight 5:10 AM ICT 7:19 PM ICT
Moon 9:00 AM ICT (2/14) 9:38 PM ICT (2/14)
Length of Visible Light 12h 28m
Length of Day
11h 45m
Waxing Crescent, 17% of the Moon is Illuminated
Feb 14
Waxing Crescent
Feb 18
First Quarter
Feb 26
Full
Mar 5
Last Quarter
Mar 12
New

Hourly Weather History & Observations

Time (ICT) Temp. Heat Index Dew Point Humidity Pressure Visibility Wind Dir Wind Speed Gust Speed Precip Events Conditions
12:00 AM 86.0 °F 88.2 °F 66.2 °F 51% 29.83 in 5.6 mi South 2.3 mph - N/A   Partly Cloudy
12:30 AM 86.0 °F 88.2 °F 66.2 °F 51% 29.83 in 5.6 mi Variable 5.8 mph - N/A   Partly Cloudy
1:00 AM 86.0 °F 88.2 °F 66.2 °F 51% 29.83 in 5.6 mi ENE 4.6 mph - N/A   Partly Cloudy
6:30 AM 78.8 °F - 66.2 °F 65% 29.83 in 5.6 mi NE 6.9 mph - N/A   Unknown
7:00 AM 77 °F - 68 °F 67% 29.88 in 6 mi East 2.2 mph - -   Partly Cloudy
7:00 AM 78.8 °F - 66.2 °F 65% 29.83 in 5.6 mi ENE 9.2 mph - N/A   Unknown
7:30 AM 80.6 °F 82.7 °F 66.2 °F 61% 29.83 in 5.6 mi ENE 9.2 mph - N/A   Unknown
8:00 AM 80.6 °F 82.3 °F 64.4 °F 58% 29.86 in 5.6 mi ENE 8.1 mph - N/A   Unknown
8:30 AM 82.4 °F 83.9 °F 64.4 °F 54% 29.86 in - ENE 9.2 mph - N/A   Clear
9:00 AM 84.2 °F 86.6 °F 66.2 °F 55% 29.86 in - NNE 10.4 mph - N/A   Clear
9:30 AM 84.2 °F 86.6 °F 66.2 °F 55% 29.86 in - NNE 3.5 mph - N/A   Clear
10:00 AM 86.0 °F 88.2 °F 66.2 °F 51% 29.86 in - NNE 4.6 mph - N/A   Clear
10:30 AM 87.8 °F 90.4 °F 66.2 °F 49% 29.86 in - ESE 4.6 mph - N/A   Clear
11:00 AM 89.6 °F 92.2 °F 66.2 °F 46% 29.86 in - NNW 5.8 mph - N/A   Clear
11:30 AM 89.6 °F 92.2 °F 66.2 °F 46% 29.83 in - NW 5.8 mph - N/A   Clear
12:00 PM 89.6 °F 92.2 °F 66.2 °F 46% 29.83 in - WNW 6.9 mph - N/A   Clear
12:30 PM 91.4 °F 94.0 °F 66.2 °F 43% 29.80 in - NW 9.2 mph - N/A   Clear
1:00 PM 91.4 °F 94.0 °F 66.2 °F 43% 29.80 in - NW 4.6 mph - N/A   Clear
1:30 PM 91.4 °F 94.0 °F 66.2 °F 43% 29.77 in - NNW 6.9 mph - N/A   Clear
2:00 PM 95.0 °F 98.5 °F 66.2 °F 39% 29.77 in - SW 6.9 mph - N/A   Clear
2:30 PM 93.2 °F 96.2 °F 66.2 °F 41% 29.74 in - NW 5.8 mph - N/A   Clear
3:00 PM 95.0 °F 97.0 °F 64.4 °F 36% 29.74 in - NNE 6.9 mph - N/A   Clear
3:30 PM 95.0 °F 96.0 °F 62.6 °F 34% 29.74 in 6.2 mi ESE 5.8 mph - N/A   Partly Cloudy
4:00 PM 95.0 °F 96.0 °F 62.6 °F 34% 29.71 in 6.2 mi ESE 2.3 mph - N/A   Partly Cloudy
4:30 PM 95.0 °F 97.0 °F 64.4 °F 36% 29.71 in 6.2 mi NNE 5.8 mph - N/A   Partly Cloudy
5:00 PM 93.2 °F 94.9 °F 64.4 °F 38% 29.71 in 6.2 mi ENE 5.8 mph - N/A   Scattered Clouds
5:30 PM 93.2 °F 94.9 °F 64.4 °F 38% 29.74 in 6.2 mi SE 3.5 mph - N/A   Scattered Clouds
6:00 PM 91.4 °F 93.2 °F 64.4 °F 41% 29.74 in 5.6 mi ESE 3.5 mph - N/A   Scattered Clouds
6:30 PM 91.4 °F 94.0 °F 66.2 °F 43% 29.74 in 5.6 mi SE 3.5 mph - N/A   Partly Cloudy
7:00 PM 91.4 °F 93.2 °F 64.4 °F 41% 29.74 in 5.6 mi SSE 2.3 mph - N/A   Partly Cloudy
7:30 PM 91.4 °F 94.0 °F 66.2 °F 43% 29.74 in 5.6 mi South 3.5 mph - N/A   Partly Cloudy
8:00 PM 89.6 °F 94.7 °F 69.8 °F 52% 29.77 in 5.6 mi SSE 6.9 mph - N/A   Partly Cloudy
8:30 PM 87.8 °F 92.6 °F 69.8 °F 55% 29.77 in 5.6 mi South 6.9 mph - N/A   Partly Cloudy
9:00 PM 87.8 °F 92.6 °F 69.8 °F 55% 29.80 in 5.6 mi South 6.9 mph - N/A   Partly Cloudy
9:30 PM 87.8 °F 92.6 °F 69.8 °F 55% 29.80 in 5.6 mi South 5.8 mph - N/A   Partly Cloudy
10:00 PM 84.2 °F 88.4 °F 69.8 °F 62% 29.80 in 5.6 mi SSW 8.1 mph - N/A   Partly Cloudy
10:30 PM 84.2 °F 89.6 °F 71.6 °F 66% 29.80 in 5.6 mi SSW 11.5 mph - N/A   Partly Cloudy
11:30 PM 84.2 °F 89.6 °F 71.6 °F 66% 29.80 in 5.6 mi SSW 11.5 mph - N/A   Partly Cloudy